[[{"header":{"parameterUnit":"m.s-1","parameterCategory":2,"la1":30.2991,"la2":30.254,"lo1":-89.0895,"lo2":-89.0444,"dy":0.0017,"dx":0.0017,"nx":28,"ny":28,"refTime":"2024-04-16T03:00:00:Z","depth":"0","parameterNumber":2,"parameterNumberName":"U-component_of_CURRENTS"},"data":[0,0,0,0,0,0,0,0,0,0,0,0,0,0,0,0,0,0,0,0,0,0,0,0,0,0,0,0,0,0,0,0,0,0,0,0,0,0,0,0,0,0,0,0,0,0,0,0,0,0,0,0,0,0,0,0,0,0,-0.2958,-0.2959,0,-0.3054,-0.3055,-0.3056,-0.3081,-0.3081,-0.308,-0.308,-0.3099,-0.3099,-0.31,0,0,0,0,0,0,0,0,0,0,0,0,0,-0.2818,-0.2821,-0.2958,-0.2959,-0.296,-0.3054,-0.3055,-0.3056,-0.3081,-0.3081,-0.308,-0.3079,-0.3098,-0.3099,-0.3101,0,0,0,0,0,0,0,0,0,0,0,0,0,-0.2892,-0.2821,-0.2958,-0.2985,-0.2988,-0.3054,-0.3055,-0.3057,-0.3081,-0.3081,-0.308,-0.3079,-0.3098,-0.3099,-0.3101,-0.3125,0,0,-0.3105,-0.3106,0,0,0,0,0,0,0,0,-0.2888,-0.2897,-0.2979,-0.2983,-0.2987,-0.3056,-0.3013,-0.3076,-0.3082,-0.3045,-0.308,-0.3079,-0.3078,-0.3081,-0.3101,-0.3126,-0.3127,-0.3105,-0.3106,-0.3107,-0.3107,0,0,0,0,0,0,0,-0.2883,-0.2893,-0.2995,-0.2981,-0.2986,-0.3,-0.3009,-0.3026,-0.3063,-0.3048,-0.305,-0.3063,-0.3079,-0.3099,-0.3101,-0.3127,-0.3105,-0.3107,-0.3107,-0.3108,-0.3158,-0.3159,0,0,0,0,0,0,-0.2873,-0.2889,-0.2992,-0.2998,-0.2936,-0.3003,-0.3013,-0.3034,-0.3064,-0.3069,-0.3063,-0.3064,-0.3097,-0.31,-0.3102,-0.3059,-0.3107,-0.3108,-0.3109,-0.3158,-0.3158,-0.3159,0,0,0,0,0,0,-0.287,-0.2882,-0.2988,-0.2945,-0.296,-0.3006,-0.3029,-0.3036,-0.305,-0.3077,-0.308,-0.3068,-0.3097,-0.31,-0.3119,-0.3062,-0.3109,-0.311,-0.3157,-0.3158,-0.3159,-0.3019,0,0,0,0,0,0,-0.2865,-0.288,-0.2884,-0.2945,-0.2962,-0.3004,-0.303,-0.3038,-0.3059,-0.306,-0.3082,-0.3084,-0.3096,-0.3117,-0.3121,-0.3065,-0.3111,-0.3157,-0.3158,-0.3158,-0.3023,-0.3015,-0.3008,0,0,0,0,0,-0.286,-0.2866,-0.2884,-0.2896,-0.297,-0.3003,-0.3012,-0.3042,-0.306,-0.3054,-0.3087,-0.3083,-0.3124,-0.3119,-0.3123,-0.3066,-0.3156,-0.3157,-0.3158,-0.3026,-0.3016,-0.3008,0,0,0,0,0,0,-0.2807,-0.2872,-0.2892,-0.2918,-0.2948,-0.3007,-0.301,-0.3039,-0.3065,-0.3066,-0.3095,-0.3099,-0.3084,-0.3122,-0.3115,-0.3092,-0.3137,-0.3139,-0.3035,-0.3026,-0.3019,-0.3016,-0.3113,0,0,0,0,0,-0.28,-0.282,-0.2878,-0.2894,-0.2908,-0.296,-0.2978,-0.3001,-0.3037,-0.3048,-0.3067,-0.3093,-0.3096,-0.3099,-0.3113,-0.3111,-0.3128,-0.3082,-0.3074,-0.3067,-0.3073,-0.3056,-0.3045,-0.3162,-0.3162,-0.3162,0,0,-0.2785,-0.2821,-0.2834,-0.2883,-0.2912,-0.2927,-0.2968,-0.2989,-0.2992,-0.3045,-0.3048,-0.3061,-0.3093,-0.3076,-0.3074,-0.3096,-0.3042,-0.3068,-0.3061,-0.3072,-0.3055,-0.3043,-0.3032,-0.3163,-0.3163,-0.3163,0,0,-0.2756,-0.2795,-0.2798,-0.2822,-0.2861,-0.2895,-0.2898,-0.2949,-0.2956,-0.2974,-0.2998,-0.2986,-0.302,-0.3009,-0.3014,-0.2985,-0.2998,-0.2993,-0.2945,-0.2926,-0.2914,-0.2905,-0.2892,-0.2883,-0.2991,-0.2991,-0.2991,0,-0.2731,-0.2754,-0.2799,-0.2805,-0.2824,-0.2877,-0.2881,-0.2897,-0.2943,-0.2949,-0.2956,-0.2981,-0.2978,-0.2956,-0.2935,-0.2954,-0.2969,-0.296,-0.2909,-0.29,-0.2893,-0.2883,-0.2874,-0.2984,-0.2985,-0.2986,-0.2986,0,-0.2702,-0.2723,-0.2724,-0.2754,-0.2774,-0.2786,-0.2823,-0.2832,-0.2853,-0.2873,-0.2859,-0.2865,-0.2884,-0.286,-0.2882,-0.283,-0.2863,-0.2888,-0.2915,-0.2871,-0.2865,-0.2858,-0.2975,-0.2977,-0.2979,-0.2981,0,0,-0.264,-0.2696,-0.2694,-0.2711,-0.2754,-0.2771,-0.277,-0.2792,-0.2801,-0.2801,-0.2799,-0.2763,-0.2777,-0.2788,-0.2795,-0.2765,-0.2688,-0.2803,-0.2805,-0.2761,-0.2657,-0.2617,-0.2606,-0.2706,-0.2704,-0.2703,-0.2665,0,-0.2602,-0.2613,-0.2649,-0.2658,-0.2673,-0.2721,-0.2725,-0.2747,-0.2764,-0.2771,-0.2751,-0.2753,-0.2748,-0.2749,-0.271,-0.2715,-0.267,-0.2697,-0.2736,-0.2737,-0.268,-0.2597,-0.2525,-0.248,-0.2658,-0.2657,-0.2657,0,-0.255,-0.2577,-0.2582,-0.2639,-0.2648,-0.2655,-0.269,-0.27,-0.2717,-0.2733,-0.2725,-0.274,-0.2696,-0.2699,-0.265,-0.2678,-0.2652,-0.264,-0.2639,-0.265,-0.2684,-0.2562,-0.2462,-0.2459,-0.2647,-0.2648,-0.2648,0,-0.2486,-0.2526,-0.2536,-0.2551,-0.2614,-0.2619,-0.2647,-0.2678,-0.2696,-0.2708,-0.2729,-0.2702,-0.2698,-0.2659,-0.2635,-0.2648,-0.2587,-0.2604,-0.2537,-0.2535,-0.2508,-0.2505,-0.2384,-0.2543,-0.2543,-0.2543,-0.2543,0,-0.2436,-0.2443,-0.2507,-0.2514,-0.2526,-0.258,-0.2592,-0.2621,-0.2661,-0.2674,-0.2702,-0.2706,-0.269,-0.2668,-0.263,-0.2562,-0.2581,-0.2508,-0.251,-0.2458,-0.2451,-0.2479,-0.2513,-0.2541,-0.2542,-0.2542,-0.2542,0,-0.236,-0.2405,-0.2419,-0.248,-0.2495,-0.2499,-0.2563,-0.258,-0.2633,-0.265,-0.2657,-0.2704,-0.2674,-0.2652,-0.2598,-0.2557,-0.2456,-0.2465,-0.2408,-0.2401,-0.2323,-0.2354,-0.225,-0.2184,-0.2373,-0.2372,-0.237,0,-0.232,-0.2318,-0.2374,-0.2384,-0.2407,-0.2434,-0.2459,-0.2538,-0.2565,-0.2639,-0.264,-0.265,-0.2633,-0.2559,-0.2482,-0.2399,-0.2392,-0.2295,-0.228,-0.2281,-0.2318,-0.232,-0.2272,-0.2189,-0.2186,-0.2184,-0.2182,0,-0.2232,-0.2249,-0.2265,-0.2292,-0.2316,-0.2346,-0.2386,-0.2414,-0.2503,-0.2541,-0.2572,-0.2571,-0.2526,-0.2429,-0.2346,-0.2275,-0.2247,-0.2247,-0.2257,-0.2156,-0.2145,-0.2095,-0.2271,-0.2163,-0.2165,-0.2167,-0.2168,-0.2168,-0.2144,-0.2138,-0.2159,-0.2171,-0.2206,-0.2222,-0.2204,-0.2278,-0.2309,-0.2332,-0.2425,-0.2401,-0.2388,-0.2257,-0.2198,-0.2082,-0.2095,-0.2025,-0.206,-0.2061,-0.1986,-0.2117,-0.2012,-0.2013,-0.2014,-0.2014,-0.2015,0,-0.2022,-0.2028,-0.2038,-0.2044,-0.2028,-0.2089,-0.2123,-0.2089,-0.2083,-0.2161,-0.2171,-0.2201,-0.2125,-0.211,-0.2027,-0.1939,-0.1871,-0.1888,-0.188,-0.1835,-0.195,-0.1933,-0.1795,-0.1795,-0.1795,-0.1795,-0.1795,-0.1795,-0.1954,-0.1915,-0.1924,-0.1845,-0.1853,-0.1787,-0.1774,-0.1757,-0.178,-0.1778,-0.1832,-0.1904,-0.1946,-0.2108,-0.2007,-0.1904,-0.1845,-0.1782,-0.1785,-0.1903,-0.1919,-0.1935,-0.1922,-0.1785,-0.1785,-0.1598,-0.1598,-0.1597]},{"header":{"parameterUnit":"m.s-1","parameterCategory":2,"la1":30.2991,"la2":30.254,"lo1":-89.0895,"lo2":-89.0444,"dy":0.0017,"dx":0.0017,"nx":28,"ny":28,"refTime":"2024-04-16T03:00:00:Z","depth":"0","parameterNumber":3,"parameterNumberName":"V-component_of_CURRENTS"},"data":[0,0,0,0,0,0,0,0,0,0,0,0,0,0,0,0,0,0,0,0,0,0,0,0,0,0,0,0,0,0,0,0,0,0,0,0,0,0,0,0,0,0,0,0,0,0,0,0,0,0,0,0,0,0,0,0,0,0,-0.0307,-0.0305,0,-0.0177,-0.0175,-0.0174,-0.0085,-0.0085,-0.0084,-0.0083,0.0117,0.0122,0.0127,0,0,0,0,0,0,0,0,0,0,0,0,0,-0.0394,-0.0394,-0.0307,-0.0305,-0.0304,-0.0177,-0.0175,-0.0173,-0.0085,-0.0085,-0.0084,-0.0083,0.0116,0.0121,0.0127,0,0,0,0,0,0,0,0,0,0,0,0,0,-0.032,-0.0394,-0.0307,-0.0245,-0.0238,-0.0178,-0.0175,-0.0173,-0.0085,-0.0084,-0.0084,-0.0083,0.0114,0.0121,0.0128,0.0154,0,0,0.015,0.0153,0,0,0,0,0,0,0,0,-0.0324,-0.0316,-0.0255,-0.0249,-0.0241,-0.0147,-0.0133,-0.006,-0.0086,-0.0143,-0.0083,-0.0082,0.0035,0.0048,0.007,0.0163,0.0172,0.015,0.0155,0.0158,0.016,0,0,0,0,0,0,0,-0.0329,-0.0321,-0.0255,-0.0254,-0.0245,-0.0194,-0.0184,-0.0118,-0.0059,-0.0138,-0.0131,-0.0118,0.0039,0.0063,0.0076,0.0175,0.015,0.0157,0.0161,0.0164,0.0324,0.0324,0,0,0,0,0,0,-0.0352,-0.0326,-0.0259,-0.0251,-0.0282,-0.0194,-0.0182,-0.0178,-0.0061,-0.0043,-0.0119,-0.0114,0.005,0.0067,0.0083,0.0125,0.0158,0.0165,0.0169,0.0325,0.0324,0.0324,0,0,0,0,0,0,-0.0354,-0.0348,-0.0264,-0.0285,-0.0271,-0.0194,-0.019,-0.0176,-0.015,-0.0047,-0.0028,-0.0108,0.0052,0.0073,0.0135,0.0133,0.0168,0.0174,0.0325,0.0324,0.0324,0.0205,0,0,0,0,0,0,-0.0358,-0.0349,-0.0357,-0.0288,-0.0271,-0.0238,-0.019,-0.0174,-0.0144,-0.0136,-0.0032,-0.0012,0.0054,0.0123,0.0142,0.0144,0.018,0.0325,0.0325,0.0324,0.0209,0.0201,0.0194,0,0,0,0,0,-0.0361,-0.0375,-0.0359,-0.035,-0.0284,-0.0238,-0.0226,-0.0166,-0.0145,-0.014,-0.0071,-0.0016,0.0137,0.0129,0.015,0.0154,0.0325,0.0325,0.0324,0.0213,0.0203,0.0195,0,0,0,0,0,0,-0.0416,-0.0365,-0.0346,-0.0344,-0.03,-0.0224,-0.0213,-0.0176,-0.012,-0.0112,-0.0018,0.0006,0.0054,0.0122,0.0111,0.0202,0.0241,0.0245,0.0149,0.014,0.0133,0.0131,0.0186,0,0,0,0,0,-0.0435,-0.0433,-0.0374,-0.0374,-0.0356,-0.0289,-0.0265,-0.0226,-0.0165,-0.014,-0.007,0.0009,0.0071,0.0118,0.0178,0.0232,0.029,0.0251,0.0244,0.0237,0.025,0.0313,0.0312,0.0324,0.0324,0.0324,0,0,-0.0455,-0.0429,-0.0427,-0.0386,-0.0347,-0.0323,-0.0272,-0.0242,-0.0219,-0.0126,-0.008,-0.0023,0.0075,0.0126,0.0157,0.0186,0.026,0.0237,0.023,0.0248,0.0313,0.0311,0.031,0.0324,0.0324,0.0324,0,0,-0.0489,-0.0474,-0.0478,-0.0449,-0.0401,-0.0358,-0.0356,-0.0288,-0.0255,-0.0207,-0.0141,-0.0085,0.0017,0.0085,0.0135,0.0128,0.0205,0.0146,0.0124,0.0183,0.0182,0.0182,0.0233,0.0239,0.0157,0.0157,0.0157,0,-0.0516,-0.0513,-0.0472,-0.0465,-0.0445,-0.038,-0.0373,-0.0331,-0.0253,-0.0225,-0.0206,-0.007,0.0002,0.008,0.0078,0.0111,0.0154,0.0143,0.0171,0.0173,0.0175,0.0228,0.0236,0.0151,0.0152,0.0153,0.0153,0,-0.0543,-0.0541,-0.0542,-0.0512,-0.0487,-0.0475,-0.0412,-0.0386,-0.0344,-0.0291,-0.0226,-0.0137,-0.0047,-0.0024,0.0031,0.0085,0.0111,0.0136,0.0186,0.0166,0.0223,0.0233,0.0143,0.0145,0.0147,0.0148,0,0,-0.0595,-0.0568,-0.0568,-0.0566,-0.0514,-0.0497,-0.0465,-0.0411,-0.0385,-0.0318,-0.0275,-0.0177,-0.013,-0.007,-0.0003,0.0057,0.0097,0.0101,0.0107,0.0138,0.0221,0.0274,0.0291,0.012,0.0121,0.0122,0.0246,0,-0.0626,-0.0641,-0.0606,-0.0609,-0.0609,-0.0548,-0.0523,-0.0468,-0.0409,-0.0355,-0.026,-0.0197,-0.0145,-0.0108,-0.0044,0.0066,0.0122,0.0061,0.025,0.0256,0.0294,0.0305,0.0356,0.0475,0.0257,0.0259,0.026,0,-0.0658,-0.0665,-0.0682,-0.0663,-0.0655,-0.0643,-0.0595,-0.0561,-0.0466,-0.042,-0.0339,-0.026,-0.0153,-0.012,0.0059,0.0015,0.011,0.0189,0.0196,0.0302,0.033,0.0467,0.0503,0.0674,0.0277,0.0276,0.0274,0,-0.0721,-0.0714,-0.0737,-0.0731,-0.0695,-0.0688,-0.0664,-0.0586,-0.0555,-0.0458,-0.0423,-0.029,-0.0215,-0.0086,0.0089,0.0074,0.0281,0.0282,0.0418,0.0422,0.0537,0.055,0.0757,0.04,0.04,0.0399,0.0399,0,-0.0772,-0.0785,-0.0773,-0.0785,-0.0806,-0.0754,-0.0748,-0.0701,-0.0624,-0.058,-0.0465,-0.0393,-0.0203,-0.0056,0.0082,0.0295,0.0282,0.0428,0.0466,0.0496,0.0502,0.0715,0.0772,0.0404,0.0403,0.0402,0.0401,0,-0.0833,-0.0825,-0.085,-0.0838,-0.0839,-0.0854,-0.082,-0.0806,-0.0727,-0.0665,-0.0636,-0.0455,-0.0251,-0.0057,0.018,0.0299,0.0597,0.0558,0.0578,0.0616,0.0886,0.0933,0.1169,0.127,0.0723,0.0725,0.0727,0,-0.0865,-0.0887,-0.0907,-0.0934,-0.0932,-0.0942,-0.0946,-0.0874,-0.0843,-0.0692,-0.0661,-0.0451,-0.0276,0.0087,0.0346,0.0609,0.0717,0.079,0.0775,0.0931,0.1011,0.1024,0.1092,0.0874,0.0877,0.0879,0.0881,0,-0.0922,-0.0929,-0.0954,-0.1018,-0.1041,-0.1056,-0.1045,-0.1033,-0.0923,-0.0838,-0.0667,-0.0511,-0.0134,0.0225,0.0564,0.0709,0.0923,0.0846,0.1018,0.1164,0.1186,0.1291,0.0751,0.0902,0.09,0.0898,0.0897,0.0896,-0.0958,-0.1001,-0.1041,-0.1095,-0.1128,-0.1149,-0.1145,-0.1089,-0.1016,-0.0827,-0.0683,-0.0389,0.0126,0.0632,0.0812,0.1199,0.1122,0.1297,0.1344,0.1345,0.1443,0.0944,0.1128,0.1127,0.1126,0.1126,0.1125,0,-0.1003,-0.1051,-0.1114,-0.1171,-0.1211,-0.1208,-0.1189,-0.1131,-0.1021,-0.0791,-0.0581,0.001,0.0507,0.0957,0.1502,0.1694,0.1719,0.1775,0.1821,0.187,0.1457,0.1465,0.1719,0.1719,0.1719,0.1719,0.1718,0.1718,-0.1028,-0.1102,-0.1139,-0.1221,-0.1257,-0.1265,-0.1244,-0.1112,-0.0934,-0.0527,-0.0161,0.0123,0.0749,0.1642,0.2138,0.216,0.2325,0.2282,0.2374,0.2103,0.2062,0.2023,0.2048,0.2419,0.242,0.278,0.2784,0.2786]}],[{"header":{"parameterUnit":"m.s-1","parameterCategory":2,"la1":30.2991,"la2":30.254,"lo1":-89.0895,"lo2":-89.0444,"dy":0.0017,"dx":0.0017,"nx":28,"ny":28,"refTime":"2024-04-16T03:00:00:Z","depth":"2","parameterNumber":2,"parameterNumberName":"U-component_of_CURRENTS"},"data":[0,0,0,0,0,0,0,0,0,0,0,0,0,0,0,0,0,0,0,0,0,0,0,0,0,0,0,0,0,0,0,0,0,0,0,0,0,0,0,0,0,0,0,0,0,0,0,0,0,0,0,0,0,0,0,0,0,0,-0.2777,-0.2777,0,-0.2831,-0.2832,-0.2832,-0.2844,-0.2843,-0.2843,-0.2843,-0.2884,-0.2885,-0.2886,0,0,0,0,0,0,0,0,0,0,0,0,0,-0.2663,-0.2665,-0.2776,-0.2777,-0.2778,-0.2831,-0.2832,-0.2832,-0.2844,-0.2843,-0.2843,-0.2843,-0.2883,-0.2885,-0.2886,0,0,0,0,0,0,0,0,0,0,0,0,0,-0.2712,-0.2666,-0.2776,-0.2792,-0.2794,-0.2831,-0.2832,-0.2832,-0.2844,-0.2843,-0.2843,-0.2843,-0.2883,-0.2885,-0.2886,-0.2904,0,0,-0.2892,-0.2893,0,0,0,0,0,0,0,0,-0.271,-0.2716,-0.2789,-0.2791,-0.2794,-0.2832,-0.2807,-0.2856,-0.2844,-0.2822,-0.2843,-0.2843,-0.2867,-0.287,-0.2878,-0.2906,-0.2908,-0.2892,-0.2894,-0.2894,-0.2895,0,0,0,0,0,0,0,-0.2706,-0.2714,-0.2796,-0.279,-0.2793,-0.279,-0.2797,-0.2816,-0.2844,-0.2824,-0.2826,-0.2836,-0.2868,-0.2876,-0.2879,-0.2908,-0.2892,-0.2894,-0.2895,-0.2896,-0.2964,-0.2964,0,0,0,0,0,0,-0.2706,-0.2711,-0.2794,-0.2798,-0.2753,-0.2793,-0.28,-0.2818,-0.2844,-0.2848,-0.2836,-0.2836,-0.2873,-0.2877,-0.288,-0.2859,-0.2894,-0.2896,-0.2897,-0.2963,-0.2964,-0.2965,0,0,0,0,0,0,-0.2703,-0.2713,-0.2792,-0.2757,-0.2767,-0.2795,-0.2816,-0.282,-0.2831,-0.2853,-0.2857,-0.2844,-0.2873,-0.2878,-0.2904,-0.2862,-0.2897,-0.2899,-0.2962,-0.2963,-0.2964,-0.2844,0,0,0,0,0,0,-0.27,-0.2712,-0.2718,-0.2757,-0.2769,-0.2803,-0.2816,-0.2821,-0.2838,-0.2839,-0.2861,-0.2864,-0.2873,-0.2901,-0.2906,-0.2865,-0.29,-0.2961,-0.2963,-0.2964,-0.2847,-0.284,-0.2835,0,0,0,0,0,-0.2696,-0.2702,-0.2718,-0.2727,-0.2779,-0.2803,-0.2808,-0.2826,-0.2839,-0.2836,-0.2863,-0.2864,-0.2912,-0.2903,-0.2909,-0.2867,-0.2961,-0.2962,-0.2964,-0.2849,-0.2842,-0.2835,0,0,0,0,0,0,-0.2652,-0.2706,-0.2723,-0.2745,-0.2769,-0.2806,-0.2807,-0.2829,-0.2849,-0.2852,-0.2875,-0.2881,-0.2878,-0.2914,-0.2904,-0.2899,-0.2935,-0.2938,-0.2847,-0.284,-0.2834,-0.2828,-0.2902,0,0,0,0,0,-0.2649,-0.2668,-0.2714,-0.2728,-0.2741,-0.2777,-0.2789,-0.2806,-0.2834,-0.2843,-0.2861,-0.2886,-0.289,-0.2899,-0.2913,-0.2921,-0.2934,-0.2903,-0.2897,-0.2891,-0.2896,-0.2879,-0.2869,-0.2969,-0.2969,-0.2969,0,0,-0.2636,-0.2667,-0.2678,-0.272,-0.274,-0.2752,-0.2782,-0.28,-0.2802,-0.2845,-0.2849,-0.2861,-0.289,-0.2881,-0.2885,-0.2904,-0.287,-0.2893,-0.2887,-0.2896,-0.2879,-0.2869,-0.2859,-0.297,-0.297,-0.297,0,0,-0.261,-0.2648,-0.265,-0.2672,-0.2706,-0.2731,-0.2738,-0.2776,-0.2782,-0.28,-0.2816,-0.2809,-0.2847,-0.2833,-0.2838,-0.282,-0.2834,-0.2835,-0.2796,-0.2778,-0.2768,-0.276,-0.2748,-0.274,-0.2836,-0.2836,-0.2836,0,-0.2589,-0.261,-0.2651,-0.2657,-0.2674,-0.2721,-0.2725,-0.2737,-0.2776,-0.2781,-0.279,-0.2812,-0.2812,-0.2792,-0.2775,-0.2795,-0.2808,-0.2805,-0.2764,-0.2756,-0.275,-0.274,-0.2732,-0.283,-0.2831,-0.2831,-0.2832,0,-0.2562,-0.2583,-0.2585,-0.2614,-0.2632,-0.2645,-0.2678,-0.269,-0.2711,-0.2725,-0.2718,-0.2721,-0.2738,-0.272,-0.2736,-0.2693,-0.2724,-0.2745,-0.2765,-0.2731,-0.2725,-0.2718,-0.2822,-0.2824,-0.2826,-0.2827,0,0,-0.2504,-0.2558,-0.2557,-0.2574,-0.2616,-0.2633,-0.2636,-0.2656,-0.2666,-0.267,-0.2668,-0.2637,-0.2651,-0.266,-0.2665,-0.2638,-0.2571,-0.2673,-0.2675,-0.2632,-0.2543,-0.2501,-0.2491,-0.2587,-0.2586,-0.2585,-0.255,0,-0.2469,-0.2482,-0.2516,-0.2528,-0.2543,-0.259,-0.2596,-0.2617,-0.2637,-0.2645,-0.2628,-0.263,-0.2626,-0.2628,-0.2594,-0.2594,-0.2555,-0.258,-0.2611,-0.2612,-0.2552,-0.2482,-0.2297,-0.2245,-0.2544,-0.2543,-0.2542,0,-0.2421,-0.2447,-0.2455,-0.2511,-0.2521,-0.2529,-0.2566,-0.2578,-0.2597,-0.2613,-0.2608,-0.2622,-0.2583,-0.2586,-0.2539,-0.2565,-0.2542,-0.2529,-0.2528,-0.253,-0.2558,-0.2336,-0.2224,-0.2533,-0.2534,-0.2534,-0.2535,0,-0.236,-0.2401,-0.2413,-0.2428,-0.2491,-0.2498,-0.2526,-0.2559,-0.2578,-0.2593,-0.2614,-0.259,-0.2588,-0.2551,-0.2527,-0.2539,-0.2481,-0.2495,-0.2429,-0.2427,-0.2297,-0.2285,-0.2439,-0.2439,-0.2439,-0.2439,-0.2439,0,-0.2314,-0.2323,-0.2387,-0.2395,-0.241,-0.2463,-0.2478,-0.2508,-0.2549,-0.2562,-0.2591,-0.2595,-0.2581,-0.256,-0.2523,-0.2456,-0.2476,-0.2403,-0.2403,-0.2252,-0.2237,-0.2524,-0.2534,-0.2438,-0.2438,-0.2439,-0.2439,0,-0.2242,-0.2287,-0.2303,-0.2365,-0.2381,-0.2387,-0.2452,-0.247,-0.2524,-0.2541,-0.255,-0.2595,-0.2566,-0.2545,-0.2492,-0.2452,-0.2392,-0.2362,-0.219,-0.217,-0.2352,-0.2358,-0.2275,-0.2273,-0.2271,-0.227,-0.2269,0,-0.2205,-0.2205,-0.2262,-0.2273,-0.2298,-0.2328,-0.2353,-0.2431,-0.2457,-0.253,-0.253,-0.2542,-0.252,-0.2448,-0.2353,-0.2267,-0.2339,-0.2074,-0.2043,-0.232,-0.233,-0.2338,-0.2345,-0.182,-0.1815,-0.1811,-0.1808,0,-0.2123,-0.2142,-0.2159,-0.2187,-0.2212,-0.2242,-0.2283,-0.2309,-0.2395,-0.243,-0.2458,-0.2453,-0.2392,-0.2222,-0.2133,-0.2057,-0.2073,-0.1993,-0.2298,-0.1904,-0.1891,-0.1902,-0.1923,-0.1773,-0.1776,-0.1779,-0.1781,-0.1782,-0.2041,-0.2037,-0.2058,-0.2072,-0.2107,-0.2121,-0.2102,-0.2163,-0.2188,-0.2178,-0.2281,-0.219,-0.2168,-0.1916,-0.1822,-0.1729,-0.1864,-0.1778,-0.1789,-0.1804,-0.1772,-0.1758,-0.1609,-0.1611,-0.1613,-0.1615,-0.1617,0,-0.1922,-0.1932,-0.1943,-0.1949,-0.1929,-0.1994,-0.2024,-0.196,-0.1933,-0.1955,-0.1936,-0.1714,-0.1626,-0.1599,-0.1405,-0.1389,-0.1361,-0.1336,-0.1295,-0.133,-0.1361,-0.1306,-0.1019,-0.1017,-0.1016,-0.1015,0,0,-0.1856,-0.1817,-0.1825,-0.1745,-0.1758,-0.1673,-0.1658,-0.1582,-0.1547,-0.1439,-0.1382,-0.1486,-0.1538,-0.1266,-0.1218,-0.1089,-0.1193,-0.1031,-0.1506,-0.1491,-0.152,-0.1608,-0.1562,0,0,0,0,0]},{"header":{"parameterUnit":"m.s-1","parameterCategory":2,"la1":30.2991,"la2":30.254,"lo1":-89.0895,"lo2":-89.0444,"dy":0.0017,"dx":0.0017,"nx":28,"ny":28,"refTime":"2024-04-16T03:00:00:Z","depth":"2","parameterNumber":3,"parameterNumberName":"V-component_of_CURRENTS"},"data":[0,0,0,0,0,0,0,0,0,0,0,0,0,0,0,0,0,0,0,0,0,0,0,0,0,0,0,0,0,0,0,0,0,0,0,0,0,0,0,0,0,0,0,0,0,0,0,0,0,0,0,0,0,0,0,0,0,0,-0.0353,-0.0352,0,-0.024,-0.0239,-0.0237,-0.0161,-0.0161,-0.016,-0.016,0.0029,0.0034,0.0038,0,0,0,0,0,0,0,0,0,0,0,0,0,-0.0432,-0.0431,-0.0353,-0.0351,-0.035,-0.024,-0.0239,-0.0237,-0.0161,-0.0161,-0.016,-0.0159,0.0028,0.0033,0.0038,0,0,0,0,0,0,0,0,0,0,0,0,0,-0.0367,-0.0431,-0.0353,-0.0299,-0.0293,-0.024,-0.0239,-0.0237,-0.0162,-0.0161,-0.016,-0.0159,0.0026,0.0032,0.0039,0.0064,0,0,0.006,0.0063,0,0,0,0,0,0,0,0,-0.0371,-0.0364,-0.0308,-0.0302,-0.0295,-0.0213,-0.0197,-0.0132,-0.0162,-0.0212,-0.016,-0.0159,-0.0045,-0.0033,-0.0015,0.0072,0.008,0.006,0.0064,0.0067,0.0069,0,0,0,0,0,0,0,-0.0375,-0.0368,-0.0309,-0.0307,-0.0299,-0.0255,-0.0246,-0.0184,-0.0134,-0.0207,-0.0201,-0.0188,-0.0041,-0.0022,-0.001,0.0083,0.006,0.0066,0.007,0.0073,0.0226,0.0226,0,0,0,0,0,0,-0.0393,-0.0373,-0.0312,-0.0305,-0.0331,-0.0255,-0.0244,-0.0241,-0.0136,-0.0119,-0.0189,-0.0185,-0.0034,-0.0018,-0.0003,0.0041,0.0067,0.0074,0.0077,0.0226,0.0226,0.0226,0,0,0,0,0,0,-0.0396,-0.0389,-0.0317,-0.0335,-0.0323,-0.0255,-0.0251,-0.0239,-0.0217,-0.0123,-0.0105,-0.018,-0.0032,-0.0012,0.0046,0.0049,0.0077,0.0083,0.0226,0.0226,0.0226,0.0124,0,0,0,0,0,0,-0.0398,-0.0391,-0.0399,-0.0337,-0.0323,-0.0292,-0.0252,-0.0238,-0.021,-0.0204,-0.0108,-0.009,-0.003,0.0035,0.0052,0.0059,0.0088,0.0226,0.0226,0.0226,0.0127,0.0121,0.0115,0,0,0,0,0,-0.0402,-0.0415,-0.04,-0.0393,-0.0335,-0.0293,-0.0282,-0.023,-0.0211,-0.0207,-0.0145,-0.0093,0.0048,0.004,0.0061,0.0069,0.0226,0.0226,0.0226,0.013,0.0122,0.0115,0,0,0,0,0,0,-0.0454,-0.0407,-0.0389,-0.0388,-0.0348,-0.028,-0.0272,-0.0238,-0.0187,-0.018,-0.0095,-0.0073,-0.0025,0.0037,0.0026,0.0114,0.0147,0.0151,0.0067,0.006,0.0054,0.0052,0.0094,0,0,0,0,0,-0.0471,-0.047,-0.0414,-0.0416,-0.0398,-0.0338,-0.0317,-0.0282,-0.0227,-0.0204,-0.0139,-0.0067,-0.0009,0.0035,0.0091,0.0144,0.0197,0.0165,0.0158,0.0152,0.0165,0.0227,0.0227,0.0227,0.0227,0.0227,0,0,-0.049,-0.0466,-0.0465,-0.0427,-0.0391,-0.037,-0.0323,-0.0296,-0.0274,-0.0191,-0.0147,-0.0094,-0.0004,0.0045,0.0075,0.0101,0.0178,0.0153,0.0147,0.0163,0.0227,0.0228,0.0228,0.0227,0.0227,0.0227,0,0,-0.0523,-0.051,-0.0514,-0.0486,-0.0441,-0.0401,-0.0398,-0.0336,-0.0305,-0.026,-0.0199,-0.0144,-0.005,0.0014,0.006,0.0058,0.013,0.0075,0.0059,0.0118,0.0119,0.012,0.0169,0.0175,0.0087,0.0086,0.0086,0,-0.0549,-0.0546,-0.0508,-0.0501,-0.0482,-0.0421,-0.0414,-0.0374,-0.0302,-0.0274,-0.0258,-0.0128,-0.0061,0.0015,0.0015,0.0045,0.0085,0.0074,0.0108,0.0111,0.0114,0.0164,0.0173,0.0081,0.0082,0.0083,0.0083,0,-0.0575,-0.0573,-0.0574,-0.0545,-0.0521,-0.0509,-0.0449,-0.0422,-0.0382,-0.0332,-0.0266,-0.0183,-0.0097,-0.0074,-0.0025,0.0032,0.0054,0.0076,0.0121,0.0107,0.0162,0.0172,0.0074,0.0076,0.0078,0.0079,0,0,-0.0626,-0.0599,-0.0599,-0.0596,-0.0546,-0.0529,-0.0497,-0.0443,-0.0417,-0.0351,-0.0307,-0.0212,-0.0167,-0.0111,-0.0047,0.0013,0.0057,0.0051,0.0057,0.0088,0.018,0.0225,0.0241,0.0079,0.0081,0.0082,0.0202,0,-0.0656,-0.0668,-0.0635,-0.0636,-0.0635,-0.0576,-0.055,-0.0495,-0.0438,-0.0383,-0.029,-0.0228,-0.0179,-0.0143,-0.0078,0.0027,0.0084,0.0023,0.0201,0.0206,0.0238,0.0255,0.019,0.0294,0.0213,0.0215,0.0216,0,-0.0686,-0.0692,-0.0707,-0.0686,-0.0678,-0.0666,-0.0616,-0.0582,-0.0488,-0.0443,-0.0362,-0.0285,-0.0179,-0.0148,0.0027,-0.0017,0.0075,0.0151,0.0158,0.025,0.0272,0.0301,0.0317,0.0235,0.0233,0.0232,0.0231,0,-0.0747,-0.0738,-0.0758,-0.0752,-0.0715,-0.0707,-0.0682,-0.0605,-0.0574,-0.0477,-0.0443,-0.0311,-0.0238,-0.0111,0.0057,0.0042,0.0244,0.0246,0.0372,0.0375,0.0385,0.0387,0.0364,0.0364,0.0363,0.0363,0.0363,0,-0.0795,-0.0806,-0.0792,-0.0804,-0.0822,-0.077,-0.0762,-0.0716,-0.064,-0.0597,-0.0482,-0.0413,-0.0225,-0.0083,0.0051,0.0255,0.0245,0.0383,0.0419,0.0346,0.0343,0.0348,0.0344,0.0367,0.0366,0.0366,0.0365,0,-0.0854,-0.0845,-0.0867,-0.0853,-0.0854,-0.0867,-0.0834,-0.0818,-0.074,-0.0681,-0.0652,-0.0475,-0.0279,-0.0089,0.0142,0.0257,0.0437,0.0506,0.0408,0.0431,0.0525,0.0515,0.0658,0.0661,0.0663,0.0665,0.0667,0,-0.0884,-0.0904,-0.0922,-0.0948,-0.0945,-0.0954,-0.0957,-0.0886,-0.0856,-0.071,-0.0681,-0.0478,-0.0313,0.0039,0.0269,0.0519,0.0517,0.0603,0.0575,0.054,0.0559,0.0545,0.0533,0.0535,0.0536,0.0536,0.0537,0,-0.0939,-0.0945,-0.0968,-0.103,-0.1052,-0.1066,-0.1055,-0.1044,-0.0938,-0.0857,-0.0696,-0.0548,-0.0205,0.0077,0.0396,0.0523,0.0558,0.0621,0.0625,0.0473,0.0435,0.0451,0.044,0.054,0.0539,0.0539,0.0539,0.0539,-0.0974,-0.1016,-0.1054,-0.1106,-0.1138,-0.1159,-0.1157,-0.1105,-0.1037,-0.0876,-0.0729,-0.0489,-0.021,0.0243,0.0466,0.0648,0.0647,0.0679,0.0673,0.0667,0.0635,0.0603,0.0732,0.0733,0.0734,0.0734,0.0735,0,-0.1018,-0.1066,-0.1126,-0.1182,-0.1223,-0.122,-0.1202,-0.1158,-0.106,-0.0882,-0.0693,-0.0398,-0.0071,0.0207,0.0506,0.0707,0.0661,0.0724,0.0621,0.0616,0.0612,0.0573,0.0656,0.0657,0.0658,0.0658,0,0,-0.1043,-0.1114,-0.115,-0.1234,-0.1271,-0.1288,-0.1269,-0.1178,-0.1042,-0.0845,-0.0661,-0.0404,-0.0064,0.0141,0.0378,0.0531,0.0519,0.0531,0.0567,0.0411,0.0405,0.0555,0.0486,0,0,0,0,0]}],[{"header":{"parameterUnit":"m.s-1","parameterCategory":2,"la1":30.2991,"la2":30.254,"lo1":-89.0895,"lo2":-89.0444,"dy":0.0017,"dx":0.0017,"nx":28,"ny":28,"refTime":"2024-04-16T03:00:00:Z","depth":"4","parameterNumber":2,"parameterNumberName":"U-component_of_CURRENTS"},"data":[0,0,0,0,0,0,0,0,0,0,0,0,0,0,0,0,0,0,0,0,0,0,0,0,0,0,0,0,0,0,0,0,0,0,0,0,0,0,0,0,0,0,0,0,0,0,0,0,0,0,0,0,0,0,0,0,0,0,-0.1828,-0.1829,0,-0.1848,-0.1848,-0.1848,-0.1844,-0.1844,-0.1845,-0.1845,-0.1864,-0.1864,-0.1865,0,0,0,0,0,0,0,0,0,0,0,0,0,-0.173,-0.1732,-0.1828,-0.1829,-0.1829,-0.1848,-0.1848,-0.1848,-0.1844,-0.1844,-0.1845,-0.1845,-0.1864,-0.1864,-0.1865,0,0,0,0,0,0,0,0,0,0,0,0,0,-0.1759,-0.1732,-0.1828,-0.1833,-0.1834,-0.1848,-0.1848,-0.1848,-0.1844,-0.1844,-0.1845,-0.1845,-0.1864,-0.1864,-0.1865,-0.1867,0,0,-0.1867,-0.1867,0,0,0,0,0,0,0,0,-0.1758,-0.1762,-0.1832,-0.1833,-0.1834,-0.1848,-0.1821,-0.1856,-0.1844,-0.1836,-0.1845,-0.1845,-0.1861,-0.1862,-0.1859,-0.1868,-0.1868,-0.1867,-0.1867,-0.1868,-0.1868,0,0,0,0,0,0,0,-0.1756,-0.1761,-0.1831,-0.1833,-0.1834,-0.1816,-0.182,-0.1827,-0.1844,-0.1836,-0.1837,-0.1847,-0.1861,-0.1858,-0.186,-0.1869,-0.1867,-0.1868,-0.1868,-0.1868,-0.1933,-0.1934,0,0,0,0,0,0,-0.1766,-0.176,-0.1831,-0.1832,-0.1801,-0.1818,-0.1822,-0.184,-0.1844,-0.1846,-0.1847,-0.1847,-0.1857,-0.1859,-0.186,-0.192,-0.1868,-0.1868,-0.1869,-0.1931,-0.1933,-0.1934,0,0,0,0,0,0,-0.1764,-0.1772,-0.183,-0.1799,-0.1806,-0.182,-0.1839,-0.184,-0.1872,-0.1853,-0.1854,-0.1882,-0.1857,-0.1859,-0.1887,-0.1919,-0.1869,-0.1869,-0.193,-0.1932,-0.1934,-0.2004,0,0,0,0,0,0,-0.1761,-0.1771,-0.1795,-0.1801,-0.1808,-0.1858,-0.1839,-0.1841,-0.1878,-0.1879,-0.1883,-0.1883,-0.1858,-0.1887,-0.1888,-0.1919,-0.187,-0.1928,-0.1931,-0.1933,-0.2,-0.2008,-0.2015,0,0,0,0,0,-0.1757,-0.1777,-0.1796,-0.1805,-0.1838,-0.186,-0.1862,-0.1868,-0.188,-0.1897,-0.1899,-0.1885,-0.1903,-0.1888,-0.189,-0.1922,-0.1927,-0.193,-0.1933,-0.1996,-0.2006,-0.2015,0,0,0,0,0,0,-0.1738,-0.1779,-0.18,-0.183,-0.1859,-0.1861,-0.1878,-0.1895,-0.1911,-0.1919,-0.1903,-0.1902,-0.1941,-0.1923,-0.1908,-0.1947,-0.1913,-0.1916,-0.1961,-0.197,-0.1977,-0.1947,-0.187,0,0,0,0,0,-0.175,-0.1782,-0.1815,-0.1843,-0.1862,-0.1884,-0.1899,-0.1912,-0.1924,-0.1933,-0.1942,-0.1945,-0.1948,-0.1954,-0.1956,-0.198,-0.1948,-0.2001,-0.2009,-0.2015,-0.1991,-0.198,-0.1983,-0.1944,-0.1944,-0.1944,0,0,-0.1752,-0.1778,-0.1798,-0.1843,-0.1864,-0.1885,-0.1892,-0.1929,-0.1948,-0.1933,-0.197,-0.1982,-0.1964,-0.1985,-0.2001,-0.1978,-0.2014,-0.2019,-0.2024,-0.1996,-0.1983,-0.1986,-0.199,-0.1946,-0.1946,-0.1945,0,0,-0.1748,-0.1798,-0.1816,-0.1846,-0.1893,-0.1909,-0.1934,-0.197,-0.1991,-0.2031,-0.2022,-0.2045,-0.2067,-0.2045,-0.2037,-0.2088,-0.2061,-0.2112,-0.2118,-0.2109,-0.2111,-0.2113,-0.2094,-0.2094,-0.2108,-0.2108,-0.2108,0,-0.1748,-0.1781,-0.1824,-0.1845,-0.1873,-0.1926,-0.1949,-0.1973,-0.2017,-0.2034,-0.2052,-0.2082,-0.208,-0.2078,-0.2093,-0.2103,-0.2094,-0.2087,-0.2117,-0.2118,-0.2118,-0.2099,-0.2097,-0.2112,-0.2111,-0.2111,-0.2111,0,-0.1743,-0.1787,-0.1802,-0.185,-0.1884,-0.192,-0.1965,-0.201,-0.2057,-0.2077,-0.2123,-0.2125,-0.2131,-0.2151,-0.2135,-0.2146,-0.214,-0.2136,-0.2091,-0.2126,-0.2104,-0.2101,-0.2117,-0.2116,-0.2115,-0.2114,0,0,-0.1695,-0.1783,-0.1791,-0.1827,-0.1898,-0.1924,-0.1969,-0.2017,-0.2049,-0.2103,-0.2129,-0.2148,-0.2169,-0.2158,-0.2162,-0.2153,-0.2162,-0.2151,-0.2149,-0.2126,-0.2144,-0.2023,-0.2007,-0.2177,-0.2177,-0.2176,-0.2133,0,-0.1682,-0.1729,-0.1775,-0.1829,-0.1863,-0.1931,-0.1968,-0.202,-0.2071,-0.2113,-0.213,-0.2161,-0.2166,-0.2187,-0.218,-0.2171,-0.2155,-0.2174,-0.2116,-0.2114,-0.1996,-0.1999,-0.2175,-0.213,-0.213,-0.2129,-0.2129,0,-0.1649,-0.1696,-0.1747,-0.1839,-0.186,-0.1899,-0.1981,-0.202,-0.2079,-0.2119,-0.215,-0.2175,-0.2176,-0.2182,-0.2159,-0.2179,-0.2158,-0.2145,-0.2143,-0.1991,-0.1985,-0.2083,-0.2122,-0.2123,-0.2123,-0.2124,-0.2124,0,-0.1586,-0.1672,-0.1722,-0.1753,-0.1857,-0.1897,-0.1952,-0.2023,-0.2062,-0.2122,-0.2157,-0.2171,-0.219,-0.2167,-0.2151,-0.2164,-0.2116,-0.2126,-0.199,-0.1982,-0.2075,-0.2073,-0.2089,-0.2089,-0.2089,-0.2089,-0.2089,0,-0.1542,-0.1586,-0.1706,-0.1735,-0.1795,-0.1876,-0.1937,-0.1992,-0.2065,-0.2092,-0.2157,-0.2164,-0.2192,-0.2178,-0.2148,-0.2048,-0.2111,-0.1967,-0.1952,-0.2109,-0.2112,-0.2073,-0.2072,-0.2087,-0.2088,-0.2088,-0.2088,0,-0.1462,-0.1543,-0.1608,-0.173,-0.1768,-0.1812,-0.1928,-0.1964,-0.2049,-0.2083,-0.2104,-0.2166,-0.2136,-0.2138,-0.2098,-0.2031,-0.1957,-0.1908,-0.2069,-0.2067,-0.1832,-0.1835,-0.1736,-0.1731,-0.1727,-0.1724,-0.1721,0,-0.1423,-0.1451,-0.1586,-0.1625,-0.1687,-0.177,-0.1819,-0.1933,-0.1964,-0.2056,-0.205,-0.2076,-0.2089,-0.1928,-0.195,-0.1865,-0.1846,-0.1804,-0.181,-0.1795,-0.1791,-0.1801,-0.181,-0.1714,-0.1713,-0.1712,-0.1711,0,-0.1343,-0.1405,-0.1461,-0.1541,-0.1609,-0.1669,-0.1747,-0.176,-0.1869,-0.1973,-0.1933,-0.1904,-0.1869,-0.1826,-0.1777,-0.172,-0.1828,-0.1761,-0.1769,-0.1774,-0.1768,-0.177,-0.1783,-0.1697,-0.1699,-0.17,-0.1701,0,-0.1279,-0.1298,-0.1374,-0.1427,-0.1511,-0.153,-0.1594,-0.1625,-0.1669,-0.1783,-0.176,-0.1783,-0.1844,-0.1748,-0.1699,-0.1636,-0.1609,-0.1559,-0.1578,-0.1594,-0.1566,-0.1538,-0.1359,0,0,0,0,0,-0.1203,-0.1207,-0.1251,-0.1299,-0.1376,-0.1411,-0.1523,-0.1591,-0.1705,-0.1632,-0.1691,-0.1645,-0.1577,-0.1596,-0.1494,-0.1624,-0.1613,-0.1501,-0.1566,-0.1617,-0.1633,-0.1613,0,0,0,0,0,0,-0.1151,-0.1188,-0.1202,-0.117,-0.1175,-0.1233,-0.1295,-0.1379,-0.1351,-0.1474,-0.1443,-0.1534,-0.1489,-0.1588,-0.145,-0.1454,-0.1461,-0.1529,-0.1525,-0.1607,-0.1622,-0.1636,-0.1621,0,0,0,0,0]},{"header":{"parameterUnit":"m.s-1","parameterCategory":2,"la1":30.2991,"la2":30.254,"lo1":-89.0895,"lo2":-89.0444,"dy":0.0017,"dx":0.0017,"nx":28,"ny":28,"refTime":"2024-04-16T03:00:00:Z","depth":"4","parameterNumber":3,"parameterNumberName":"V-component_of_CURRENTS"},"data":[0,0,0,0,0,0,0,0,0,0,0,0,0,0,0,0,0,0,0,0,0,0,0,0,0,0,0,0,0,0,0,0,0,0,0,0,0,0,0,0,0,0,0,0,0,0,0,0,0,0,0,0,0,0,0,0,0,0,-0.0319,-0.0318,0,-0.0265,-0.0265,-0.0264,-0.0238,-0.0237,-0.0237,-0.0237,-0.0152,-0.015,-0.0148,0,0,0,0,0,0,0,0,0,0,0,0,0,-0.0351,-0.0351,-0.0319,-0.0318,-0.0317,-0.0265,-0.0265,-0.0264,-0.0238,-0.0237,-0.0237,-0.0237,-0.0153,-0.015,-0.0148,0,0,0,0,0,0,0,0,0,0,0,0,0,-0.0323,-0.0351,-0.0319,-0.0297,-0.0295,-0.0265,-0.0265,-0.0264,-0.0238,-0.0237,-0.0237,-0.0237,-0.0154,-0.015,-0.0147,-0.013,0,0,-0.0137,-0.0136,0,0,0,0,0,0,0,0,-0.0324,-0.0322,-0.0301,-0.0299,-0.0296,-0.0257,-0.0245,-0.0217,-0.0238,-0.026,-0.0237,-0.0237,-0.0184,-0.0178,-0.017,-0.0126,-0.0123,-0.0137,-0.0135,-0.0134,-0.0133,0,0,0,0,0,0,0,-0.0327,-0.0324,-0.0299,-0.03,-0.0297,-0.0274,-0.027,-0.0239,-0.0224,-0.0258,-0.0256,-0.0248,-0.0182,-0.0173,-0.0168,-0.0121,-0.0137,-0.0134,-0.0132,-0.0131,-0.0062,-0.0062,0,0,0,0,0,0,-0.0334,-0.0326,-0.0301,-0.0297,-0.0309,-0.0273,-0.0269,-0.027,-0.0225,-0.0218,-0.0249,-0.0247,-0.0179,-0.0172,-0.0165,-0.0132,-0.0134,-0.0131,-0.0129,-0.0062,-0.0062,-0.0062,0,0,0,0,0,0,-0.0335,-0.0332,-0.0303,-0.0309,-0.0303,-0.0273,-0.0275,-0.0269,-0.0263,-0.0217,-0.021,-0.0247,-0.0179,-0.0169,-0.014,-0.0128,-0.0129,-0.0126,-0.0062,-0.0062,-0.0062,-0.0072,0,0,0,0,0,0,-0.0336,-0.0333,-0.0343,-0.031,-0.0303,-0.0291,-0.0274,-0.0268,-0.0257,-0.0255,-0.0213,-0.0205,-0.0178,-0.0145,-0.0137,-0.0124,-0.0124,-0.0061,-0.0062,-0.0062,-0.0071,-0.0072,-0.0073,0,0,0,0,0,-0.0338,-0.0351,-0.0344,-0.0341,-0.0315,-0.0291,-0.0286,-0.0264,-0.0258,-0.0257,-0.0228,-0.0207,-0.0141,-0.0143,-0.0133,-0.0119,-0.0061,-0.0062,-0.0062,-0.0071,-0.0072,-0.0073,0,0,0,0,0,0,-0.0371,-0.0348,-0.034,-0.0346,-0.0322,-0.0286,-0.0287,-0.0269,-0.0246,-0.0246,-0.0205,-0.0194,-0.0165,-0.0146,-0.0149,-0.0102,-0.0099,-0.0097,-0.0109,-0.011,-0.0111,-0.0115,-0.0121,0,0,0,0,0,-0.0383,-0.0388,-0.0356,-0.0362,-0.0353,-0.0321,-0.0311,-0.0294,-0.0266,-0.0257,-0.0224,-0.0193,-0.0158,-0.0139,-0.0111,-0.0083,-0.0053,-0.007,-0.0071,-0.0072,-0.007,-0.001,-0.0005,-0.0063,-0.0063,-0.0063,0,0,-0.0398,-0.0386,-0.039,-0.037,-0.0352,-0.034,-0.0315,-0.0303,-0.0289,-0.025,-0.0228,-0.0195,-0.0154,-0.0122,-0.0107,-0.0103,-0.0043,-0.0072,-0.0073,-0.0071,-0.001,-0.0004,0.0002,-0.0063,-0.0063,-0.0063,0,0,-0.0422,-0.042,-0.0427,-0.0411,-0.0387,-0.0363,-0.0361,-0.0326,-0.0308,-0.0282,-0.0247,-0.0205,-0.0166,-0.0121,-0.0095,-0.0085,-0.0052,-0.0086,-0.0085,-0.0027,-0.0021,-0.0016,0.0019,0.0028,-0.0082,-0.0083,-0.0083,0,-0.0442,-0.0445,-0.0425,-0.0423,-0.0412,-0.0376,-0.0373,-0.0348,-0.0306,-0.0285,-0.0282,-0.0199,-0.016,-0.01,-0.0096,-0.0083,-0.0059,-0.0082,-0.0026,-0.002,-0.0014,0.002,0.003,-0.0083,-0.0083,-0.0083,-0.0083,0,-0.0462,-0.0467,-0.047,-0.0455,-0.0441,-0.0436,-0.0395,-0.0377,-0.0352,-0.0317,-0.0263,-0.0206,-0.0155,-0.0134,-0.0109,-0.0048,-0.0048,-0.0035,-0.0021,-0.0009,0.0026,0.0037,-0.0084,-0.0084,-0.0083,-0.0083,0,0,-0.0498,-0.0488,-0.0489,-0.0489,-0.0459,-0.0449,-0.0425,-0.0385,-0.0365,-0.0316,-0.0279,-0.0204,-0.0169,-0.0138,-0.0093,-0.0037,0.0029,-0.0024,-0.002,0.0015,0.014,0.0112,0.0121,0.0051,0.0052,0.0054,0.0144,0,-0.0518,-0.0532,-0.0513,-0.0517,-0.0518,-0.0479,-0.046,-0.0419,-0.0377,-0.0333,-0.0254,-0.0208,-0.0172,-0.0145,-0.008,-0.0,0.0057,0.0002,0.0119,0.0122,0.0101,0.0133,0.006,0.0152,0.0155,0.0157,0.0158,0,-0.0538,-0.0546,-0.0561,-0.0549,-0.0545,-0.0542,-0.0505,-0.048,-0.0405,-0.0371,-0.0302,-0.0244,-0.0148,-0.0127,0.0025,-0.0016,0.0059,0.0122,0.0127,0.0113,0.0115,0.0141,0.0177,0.0176,0.0174,0.0173,0.0172,0,-0.0572,-0.0574,-0.0593,-0.059,-0.057,-0.0569,-0.0555,-0.0497,-0.0475,-0.0395,-0.0369,-0.0252,-0.0196,-0.0082,0.0046,0.0038,0.0204,0.0212,0.026,0.0258,0.0259,0.0253,0.0323,0.0323,0.0323,0.0323,0.0322,0,-0.0595,-0.0609,-0.0618,-0.0628,-0.0648,-0.0615,-0.0615,-0.0581,-0.0525,-0.0494,-0.0397,-0.0344,-0.0181,-0.0068,0.0043,0.0179,0.0206,0.0267,0.0288,0.025,0.0241,0.0266,0.0259,0.0326,0.0325,0.0325,0.0324,0,-0.0622,-0.0629,-0.0653,-0.0659,-0.0668,-0.0683,-0.0676,-0.0665,-0.061,-0.0567,-0.0544,-0.0403,-0.0256,-0.01,0.0094,0.0168,0.0305,0.0346,0.0282,0.0296,0.0318,0.0309,0.0409,0.0409,0.0409,0.0409,0.0409,0,-0.0633,-0.0652,-0.0692,-0.0722,-0.0732,-0.0753,-0.0764,-0.072,-0.07,-0.0599,-0.0575,-0.0429,-0.0323,-0.0072,0.0086,0.0293,0.032,0.0379,0.0364,0.0321,0.0331,0.0322,0.0312,0.0409,0.0409,0.0409,0.0409,0,-0.0654,-0.0677,-0.0702,-0.0772,-0.0806,-0.083,-0.0838,-0.0827,-0.0758,-0.0714,-0.0584,-0.0439,-0.0274,-0.0076,0.0083,0.0232,0.0335,0.0379,0.038,0.0367,0.0322,0.033,0.0321,0.0409,0.0409,0.0409,0.0409,0,-0.0672,-0.0705,-0.0753,-0.0806,-0.0861,-0.0887,-0.0884,-0.084,-0.0806,-0.0682,-0.0641,-0.0448,-0.0325,-0.0106,0.0042,0.0182,0.0215,0.025,0.0258,0.026,0.0186,0.0105,0.0151,0,0,0,0,0,-0.0683,-0.0725,-0.0783,-0.0841,-0.0896,-0.0923,-0.092,-0.0898,-0.0833,-0.075,-0.0688,-0.0528,-0.0282,-0.0165,-0.0029,0.0025,0.0221,0.0185,0.0259,0.0408,0.0408,0.0344,0,0,0,0,0,0,-0.0694,-0.0754,-0.0783,-0.0857,-0.0904,-0.0952,-0.0952,-0.0909,-0.0843,-0.076,-0.0622,-0.0524,-0.0282,-0.0368,-0.0038,0.0007,0.0067,0.0311,0.0313,0.0408,0.0408,0.0408,0.0342,0,0,0,0,0]}]]